Torna al catalogo

CZ-6A DEB

AttivoPO
NORAD 61406·DEBRIS·🇨🇳 China

Lanciato Aug 6, 2024 da Taiyuan Satellite Launch Center

Loading…

Prossimi Passaggi (prossime 24 ore)

TLE

AggiornatoSource: Space-Track

Epoca: Sep 14, 2026, 00:16 UTC

1 61406U 24140XX  26257.01165421  .00000500  00000-0  29340-3 0  9996
2 61406  88.9930 267.0104 0128223 343.3469  16.3518 14.02798702102845

Traccia CZ-6A DEB in tempo reale con AllMySat

Download on the App Store